Погода в Жилиной

Россия / Орловская область     53°00′18″N   36°04′12″E
темп.,
°C
ветер,
м/с
пор.,
м/с
влажн.,
%
обл.,
%
осадки,
мм/ч
давл.,
гПа
погр.,
м
14 апреля, ср
ср1400:00+13ююв497846 0.0 1020305
03:00+10ююв389319 0.0 1020190
06:00+8ю359576 0.0 102092
09:00+12ю347775 0.0 1020376
12:00+15ююв3463100 0.0 1018973
15:00+17ююз235493 0.1 10161231
18:00+16з1256100 0.5 101677
21:00+13в2261100 0.5 101643
15 апреля, чт
чт1500:00+11юв3357100 0.0 101533
03:00+10вюв3464100 0.0 101564
06:00+10вюв3762100 0.0 1015122
09:00+12в51065100 0.2 1014337
12:00+15вюв895269 0.1 10141527
15:00+16вюв694699 0.1 10132044
18:00+15вюв375250 0.0 1012296
21:00+11в4107531 0.1 1014219
16 апреля, пт
пт1600:00+9вюв348553 0.0 101460
03:00+10юв237997 0.0 101438
06:00+8в2285100 0.0 101512
09:00+12вюв51074100 0.5 1016738
12:00+11всв4879100 1.1 1016452
15:00+14вюв5764100 2.7 10161076
18:00+14юв3554100 0.8 1016130
21:00+9зюз22735 0.8 101823
17 апреля, сб
сб1700:00+8зсз228083 0.0 101918
03:00+8ссз228067 0.0 102030
06:00+7св379360 0.0 1020124
09:00+10св6887100 0.0 1020515
12:00+12всв797391 0.1 1020965
15:00+15всв81160100 0.1 10191589
18:00+14всв8136885 1.4 10191219
21:00+11в51081100 2.3 1021502
18 апреля, вс
вс1800:00+9в51188100 0.1 1022515
03:00+9юв368898 0.2 1023500
06:00+8всв2391100 0.3 1024145
09:00+8всв478192 0.4 1024420
12:00+11всв687299 0.1 1025756
15:00+12в5857100 0.1 10261268
18:00+12в475615 0.0 1026985
21:00+9всв356510 0.0 1027117